Location: ??????????
(42.1626°N, 44.1160°E)
Time: 13:53:49
(UTC+00:00)

SL-16 R/B - Pass Details

Date: 03 March 2021
Orbit: 843 x 845 km, 71.0° (Epoch: 20 April)

Event Time Altitude Azimuth Distance (km) Brightness Sun altitude
Rises 16:04:17 0° 219° (SW) 3,387 5.9 -13.5°
Reaches altitude 10° 16:06:48 10° 225° (SW) 2,457 5.2 -13.9°
Maximum altitude 16:12:15 48° 300° (WNW) 1,094 3.2 -14.9°
Drops below altitude 10° 16:17:44 10° 14° (NNE) 2,473 4.5 -15.9°
Sets 16:20:17 0° 20° (NNE) 3,413 5.2 -16.4°
